DO7OMB-13 Weather Reports


time (UTC)temp
C
wind
direction
speed
KPH
gust
KPH
rain 1hr
cm
rain 24hr
cm
rain mn
cm
humidity
%
barometer
mb
20260502064233 16 183 6.4 14.5 0.00 0.00 0.00 59 1019.0
20260502063503 16 183 6.4 16.1 0.00 0.00 0.00 60 1019.1
20260502063215 15 182 6.4 16.1 0.00 0.00 0.00 60 1019.0
20260502062503 15 187 4.8 12.9 0.00 0.00 0.00 61 1018.9
20260502062004 15 185 4.8 12.9 0.00 0.00 0.00 62 1019.0
20260502061504 15 184 4.8 12.9 0.00 0.00 0.00 63 1019.0
20260502061003 15 185 4.8 9.7 0.00 0.00 0.00 63 1019.0
20260502060504 14 184 3.2 9.7 0.00 0.00 0.00 64 1019.0
20260502060003 14 186 3.2 9.7 0.00 0.00 0.00 65 1019.1
20260502055503 13 188 3.2 9.7 0.00 0.00 0.00 66 1019.1
20260502055005 13 180 1.6 8.0 0.00 0.00 0.00 67 1019.1
20260502054503 13 168 1.6 4.8 0.00 0.00 0.00 67 1019.0
20260502054004 13 175 1.6 6.4 0.00 0.00 0.00 68 1019.1
20260502053506 13 173 3.2 8.0 0.00 0.00 0.00 68 1019.1
20260502053004 12 167 3.2 8.0 0.00 0.00 0.00 68 1019.1
20260502052504 12 169 3.2 9.7 0.00 0.00 0.00 69 1019.0
20260502052003 12 169 3.2 9.7 0.00 0.00 0.00 69 1019.1
20260502051503 12 168 3.2 6.4 0.00 0.00 0.00 69 1019.1
20260502051213 12 171 3.2 6.4 0.00 0.00 0.00 69 1019.1
20260502050503 12 177 1.6 6.4 0.00 0.00 0.00 70 1019.1
20260502050004 12 173 1.6 6.4 0.00 0.00 0.00 70 1019.2
20260502045503 12 162 1.6 6.4 0.00 0.00 0.00 70 1019.2
20260502045004 11 160 1.6 3.2 0.00 0.00 0.00 70 1019.2
20260502044504 11 161 1.6 4.8 0.00 0.00 0.00 70 1019.2
20260502044003 11 168 1.6 4.8 0.00 0.00 0.00 70 1019.2
20260502043504 11 168 1.6 4.8 0.00 0.00 0.00 71 1019.1
20260502043004 11 162 1.6 6.4 0.00 0.00 0.00 71 1019.1
20260502042503 11 162 1.6 6.4 0.00 0.00 0.00 71 1019.2
20260502042003 11 164 1.6 3.2 0.00 0.00 0.00 71 1019.2
20260502041504 11 165 1.6 8.0 0.00 0.00 0.00 71 1019.2
20260502041004 11 162 1.6 8.0 0.00 0.00 0.00 70 1019.3
20260502040716 11 160 1.6 6.4 0.00 0.00 0.00 70 1019.3
20260502040003 11 166 1.6 6.4 0.00 0.00 0.00 70 1019.4
20260502035504 11 164 1.6 4.8 0.00 0.00 0.00 70 1019.4
20260502035215 11 161 1.6 4.8 0.00 0.00 0.00 70 1019.4
20260502034504 11 157 1.6 4.8 0.00 0.00 0.00 69 1019.5
20260502034003 11 163 1.6 4.8 0.00 0.00 0.00 69 1019.5
20260502033503 11 165 1.6 4.8 0.00 0.00 0.00 69 1019.5
20260502033004 11 158 1.6 4.8 0.00 0.00 0.00 69 1019.5
20260502032503 11 158 1.6 4.8 0.00 0.00 0.00 68 1019.6
20260502032004 11 160 1.6 4.8 0.00 0.00 0.00 68 1019.7
20260502031503 12 157 1.6 4.8 0.00 0.00 0.00 68 1019.8
20260502031214 12 155 1.6 4.8 0.00 0.00 0.00 68 1019.7
20260502030503 12 158 1.6 4.8 0.00 0.00 0.00 67 1019.8
20260502030215 12 160 1.6 4.8 0.00 0.00 0.00 67 1019.9
20260502025503 12 158 1.6 6.4 0.00 0.00 0.00 67 1020.0
20260502025004 12 161 1.6 6.4 0.00 0.00 0.00 67 1020.0
20260502024504 12 163 1.6 4.8 0.00 0.00 0.00 67 1020.0
20260502024004 12 163 1.6 4.8 0.00 0.00 0.00 67 1020.1
20260502023715 12 164 1.6 4.8 0.00 0.00 0.00 66 1020.1
20260502023213 12 165 1.6 4.8 0.00 0.00 0.00 66 1020.2
20260502022503 12 161 1.6 4.8 0.00 0.00 0.00 66 1020.2
20260502022004 12 157 1.6 4.8 0.00 0.00 0.00 66 1020.3
20260502021504 12 160 1.6 4.8 0.00 0.00 0.00 66 1020.4
20260502021003 12 162 1.6 4.8 0.00 0.00 0.00 66 1020.5
20260502020504 12 159 1.6 4.8 0.00 0.00 0.00 66 1020.4
20260502020003 12 165 1.6 4.8 0.00 0.00 0.00 66 1020.5
20260502015719 12 164 1.6 4.8 0.00 0.00 0.00 66 1020.4
20260502015003 12 166 1.6 4.8 0.00 0.00 0.00 66 1020.5
20260502014504 12 162 1.6 3.2 0.00 0.00 0.00 66 1020.6
20260502014003 12 158 1.6 3.2 0.00 0.00 0.00 66 1020.7
20260502013504 12 163 1.6 4.8 0.00 0.00 0.00 66 1020.7
20260502013003 12 168 1.6 4.8 0.00 0.00 0.00 66 1020.8
20260502012504 12 169 0.0 3.2 0.00 0.00 0.00 66 1020.7
20260502012003 12 0 0.0 0.0 0.00 0.00 0.00 66 1020.8
20260502011504 12 0 0.0 0.0 0.00 0.00 0.00 67 1020.9
20260502011003 12 0 0.0 0.0 0.00 0.00 0.00 67 1020.9
20260502010503 12 0 0.0 0.0 0.00 0.00 0.00 67 1021.0
20260502010216 12 0 0.0 0.0 0.00 0.00 0.00 67 1021.1
20260502005714 12 0 0.0 0.0 0.00 0.00 0.00 66 1021.1
20260502005217 12 0 0.0 0.0 0.00 0.00 0.00 66 1021.2
20260502004503 12 0 0.0 0.0 0.00 0.00 0.00 66 1021.2
20260502004004 12 0 0.0 0.0 0.00 0.00 0.00 66 1021.3
20260502003504 12 0 0.0 0.0 0.00 0.00 0.00 66 1021.3
20260502003003 12 0 0.0 0.0 0.00 0.00 0.00 66 1021.4
20260502002504 12 0 0.0 0.0 0.00 0.00 0.00 66 1021.5
20260502002003 12 147 0.0 1.6 0.00 0.00 0.00 66 1021.6
20260502001503 12 151 0.0 3.2 0.00 0.00 0.00 66 1021.6
20260502001003 12 151 0.0 3.2 0.00 0.00 0.00 66 1021.6
20260502000714 12 149 0.0 1.6 0.00 0.00 0.00 66 1021.7
20260502000003 12 143 0.0 3.2 0.00 0.00 0.00 66 1021.8
20260501235715 12 143 0.0 3.2 0.00 0.00 0.00 66 1021.8
20260501235004 12 144 0.0 3.2 0.00 0.00 0.00 66 1021.8
20260501234503 13 149 0.0 3.2 0.00 0.00 0.00 66 1021.9
20260501234005 13 151 1.6 4.8 0.00 0.00 0.00 65 1021.9
20260501233717 13 151 1.6 4.8 0.00 0.00 0.00 65 1021.9
20260501233004 13 152 1.6 3.2 0.00 0.00 0.00 66 1022.0
20260501232503 13 150 1.6 4.8 0.00 0.00 0.00 66 1022.0
20260501232004 13 151 1.6 4.8 0.00 0.00 0.00 66 1022.0
20260501231504 13 150 1.6 4.8 0.00 0.00 0.00 65 1022.2
20260501231004 13 147 0.0 3.2 0.00 0.00 0.00 65 1022.2
20260501230504 13 151 0.0 3.2 0.00 0.00 0.00 65 1022.3
20260501230003 13 153 0.0 3.2 0.00 0.00 0.00 65 1022.4
20260501225504 13 151 1.6 4.8 0.00 0.00 0.00 64 1022.5
20260501225004 13 152 1.6 4.8 0.00 0.00 0.00 64 1022.5
20260501224505 13 154 1.6 4.8 0.00 0.00 0.00 64 1022.4
20260501224004 13 152 1.6 6.4 0.00 0.00 0.00 64 1022.4
20260501223503 13 149 1.6 6.4 0.00 0.00 0.00 64 1022.5
20260501223004 13 154 1.6 6.4 0.00 0.00 0.00 64 1022.6
20260501222503 13 160 0.0 6.4 0.00 0.00 0.00 63 1022.6
20260501222003 13 0 0.0 0.0 0.00 0.00 0.00 63 1022.6
20260501221504 14 0 0.0 0.0 0.00 0.00 0.00 63 1022.6
20260501221004 14 153 1.6 4.8 0.00 0.00 0.00 63 1022.6
20260501220503 14 151 1.6 6.4 0.00 0.00 0.00 63 1022.6
20260501220004 14 148 1.6 6.4 0.00 0.00 0.00 63 1022.6
20260501215503 14 147 1.6 4.8 0.00 0.00 0.00 63 1022.6
20260501215003 14 147 0.0 3.2 0.00 0.00 0.00 64 1022.6
20260501214503 14 149 0.0 3.2 0.00 0.00 0.00 64 1022.7
20260501214004 14 147 0.0 3.2 0.00 0.00 0.00 63 1022.7
20260501213503 14 146 0.0 3.2 0.00 0.00 0.00 63 1022.8
20260501213003 14 149 0.0 3.2 0.00 0.00 0.00 63 1022.8
20260501212503 14 155 0.0 3.2 0.00 0.00 0.00 63 1022.7
20260501212217 15 152 0.0 3.2 0.00 0.00 0.00 63 1022.7
20260501211503 15 149 0.0 3.2 0.00 0.00 0.00 63 1022.8
20260501211003 15 151 1.6 6.4 0.00 0.00 0.00 62 1022.7
20260501210503 15 150 1.6 6.4 0.00 0.00 0.00 62 1022.9
20260501210006 15 149 1.6 6.4 0.00 0.00 0.00 62 1022.8
20260501205504 15 151 1.6 6.4 0.00 0.00 0.00 62 1022.9
20260501205003 15 152 1.6 8.0 0.00 0.00 0.00 62 1023.0
20260501204503 15 151 0.0 8.0 0.00 0.00 0.00 62 1022.9
20260501204004 15 147 0.0 4.8 0.00 0.00 0.00 62 1022.9
20260501203504 15 147 0.0 4.8 0.00 0.00 0.00 63 1023.0
20260501203004 15 148 0.0 4.8 0.00 0.00 0.00 63 1023.0
20260501202503 15 148 0.0 3.2 0.00 0.00 0.00 63 1022.9
20260501202003 15 0 0.0 0.0 0.00 0.00 0.00 63 1023.1
20260501201504 15 0 0.0 0.0 0.00 0.00 0.00 63 1023.1
20260501201003 15 0 0.0 0.0 0.00 0.00 0.00 63 1023.2
20260501200504 15 0 0.0 0.0 0.00 0.00 0.00 65 1023.2
20260501200003 15 0 0.0 0.0 0.00 0.00 0.00 66 1023.3
20260501195503 14 0 0.0 0.0 0.00 0.00 0.00 66 1023.3
20260501195004 14 0 0.0 0.0 0.00 0.00 0.00 67 1023.3
20260501194503 14 0 0.0 0.0 0.00 0.00 0.00 67 1023.4
20260501194216 14 0 0.0 0.0 0.00 0.00 0.00 67 1023.4
20260501193503 14 0 0.0 0.0 0.00 0.00 0.00 67 1023.4
20260501193004 14 0 0.0 0.0 0.00 0.00 0.00 66 1023.6
20260501192503 15 0 0.0 0.0 0.00 0.00 0.00 65 1023.5
20260501192003 15 0 0.0 0.0 0.00 0.00 0.00 65 1023.5
20260501191504 15 0 0.0 0.0 0.00 0.00 0.00 64 1023.6
20260501191003 15 0 0.0 0.0 0.00 0.00 0.00 63 1023.6
20260501190504 15 0 0.0 0.0 0.00 0.00 0.00 63 1023.7
20260501190003 16 0 0.0 0.0 0.00 0.00 0.00 62 1023.7
20260501185504 16 0 0.0 0.0 0.00 0.00 0.00 61 1023.6
20260501185004 16 0 0.0 0.0 0.00 0.00 0.00 60 1023.7
20260501184505 16 0 0.0 0.0 0.00 0.00 0.00 59 1023.8
20260501184217 17 0 0.0 0.0 0.00 0.00 0.00 58 1023.7
20260501183504 17 0 0.0 0.0 0.00 0.00 0.00 57 1023.7
20260501183003 17 0 0.0 0.0 0.00 0.00 0.00 56 1023.7
20260501182505 18 0 0.0 0.0 0.00 0.00 0.00 55 1023.7
20260501182004 18 0 0.0 0.0 0.00 0.00 0.00 54 1023.7
20260501181504 18 0 0.0 0.0 0.00 0.00 0.00 53 1023.7
20260501181004 19 0 0.0 0.0 0.00 0.00 0.00 52 1023.6
20260501180503 19 0 0.0 0.0 0.00 0.00 0.00 51 1023.7
20260501180004 20 0 0.0 0.0 0.00 0.00 0.00 50 1023.7
20260501175505 20 0 0.0 0.0 0.00 0.00 0.00 49 1023.7
20260501175003 20 0 0.0 0.0 0.00 0.00 0.00 48 1023.7
20260501174504 21 0 0.0 0.0 0.00 0.00 0.00 48 1023.8
20260501174005 21 0 0.0 0.0 0.00 0.00 0.00 47 1023.7
20260501173504 21 0 0.0 0.0 0.00 0.00 0.00 46 1023.8
20260501173004 22 0 0.0 0.0 0.00 0.00 0.00 46 1023.9
20260501172503 22 0 0.0 0.0 0.00 0.00 0.00 46 1024.0
20260501172003 22 0 0.0 0.0 0.00 0.00 0.00 44 1024.0
20260501171506 23 0 0.0 0.0 0.00 0.00 0.00 44 1024.1
20260501171003 23 0 0.0 0.0 0.00 0.00 0.00 43 1024.2
20260501170504 23 0 0.0 0.0 0.00 0.00 0.00 44 1024.2
20260501170003 23 0 0.0 0.0 0.00 0.00 0.00 44 1024.2
20260501165504 23 0 0.0 0.0 0.00 0.00 0.00 43 1024.2
20260501165003 23 0 0.0 0.0 0.00 0.00 0.00 42 1024.3
20260501164504 23 0 0.0 0.0 0.00 0.00 0.00 42 1024.4
20260501164003 23 0 0.0 0.0 0.00 0.00 0.00 42 1024.5
20260501163503 22 332 0.0 1.6 0.00 0.00 0.00 43 1024.5
20260501163003 22 353 0.0 3.2 0.00 0.00 0.00 43 1024.6
20260501162717 23 342 0.0 3.2 0.00 0.00 0.00 42 1024.6
20260501162003 23 335 0.0 3.2 0.00 0.00 0.00 41 1024.7
20260501161503 23 342 0.0 4.8 0.00 0.00 0.00 42 1024.8
20260501161216 23 340 0.0 4.8 0.00 0.00 0.00 42 1024.8
20260501160503 23 342 0.0 6.4 0.00 0.00 0.00 42 1024.9
20260501160004 23 341 1.6 6.4 0.00 0.00 0.00 41 1024.8
20260501155213 24 305 0.0 4.8 0.00 0.00 0.00 39 1024.9
20260501154716 24 290 0.0 4.8 0.00 0.00 0.00 38 1025.0
20260501154003 24 273 0.0 6.4 0.00 0.00 0.00 38 1025.0
20260501153717 25 247 0.0 6.4 0.00 0.00 0.00 37 1025.0
20260501153003 25 167 1.6 4.8 0.00 0.00 0.00 38 1025.2
20260501152503 25 161 1.6 6.4 0.00 0.00 0.00 36 1025.4
20260501152004 25 159 3.2 12.9 0.00 0.00 0.00 34 1025.3
20260501151504 24 166 3.2 20.9 0.00 0.00 0.00 28 1025.4
20260501151003 24 173 3.2 20.9 0.00 0.00 0.00 29 1025.4
20260501150503 24 179 3.2 11.3 0.00 0.00 0.00 29 1025.5